Fullerton, CA

3:46 PM PDT on March 28, 2017 (GMT -0700)
Fullerton Municipal

Weather History for KFUL - August, 2013

Change the Weather History Date:

Saturday, August 24, 2013

  Actual Average Record
Temperature  
Mean Temperature 74 °F 76 °F  
Max Temperature 84 °F 86 °F 97 °F (2010)
Min Temperature 64 °F 65 °F 57 °F (2002)
Degree Days  
Heating Degree Days 0 0  
Month to date heating degree days 3 0  
Since 1 June heating degree days 3 2  
Since 1 July heating degree days 3 0  
Cooling Degree Days 9 11  
Month to date cooling degree days 235 247  
Year to date cooling degree days 1234 789  
Since 1 June cooling degree days 879 666  
Growing Degree Days 24 (Base 50)    
Moisture  
Dew Point 59 °F    
Average Humidity 64    
Maximum Humidity 84    
Minimum Humidity 43    
Precipitation  
Precipitation 0.00 in 0.01 in 0.00 in (2017)
Month to date precipitation 0.00 0.04  
Year to date precipitation 2.53 9.73  
Since 1 July precipitation T  
Snow  
Snow 0.00 in - - ()
Month to date snowfall 0.0  
Year to date snowfall 0.0  
Snow Depth 0.00 in    
Sea Level Pressure  
Sea Level Pressure 29.81 in    
Wind  
Wind Speed 2 mph (SSW)    
Max Wind Speed 10 mph    
Max Gust Speed 14 mph    
Visibility 8 miles    
Events      
T = Trace of Precipitation, MM = Missing Value Source: NWS Daily Summary

Daily Weather History Graph

Daily Weather History Graph

Search for Another Location

Airport or City:

Trip Planner

Search our weather history database for the weather conditions in past years. The results will help you decide how hot, cold, wet, or windy it might be!

Date:

Astronomy

Aug. 24, 2013 Rise Set
Actual Time 6:20 AM PDT 7:27 PM PDT
Civil Twilight 5:54 AM PDT 7:53 PM PDT
Nautical Twilight 5:23 AM PDT 8:23 PM PDT
Astronomical Twilight 4:51 AM PDT 8:55 PM PDT
Moon 9:39 PM PDT (8/24) 10:10 AM PDT (8/24)
Length of Visible Light 13h 58m
Length of Day
13h 07m
Waning Gibbous, 83% of the Moon is Illuminated
Aug 24
Waning Gibbous
Aug 28
Last Quarter
Sep 5
New
Sep 12
First Quarter
Sep 19
Full

Hourly Weather History & Observations

Time (PDT) Temp. Heat Index Dew Point Humidity Pressure Visibility Wind Dir Wind Speed Gust Speed Precip Events Conditions
12:53 AM 69.1 °F - 60.1 °F 73% 29.80 in 10.0 mi Calm Calm - N/A   Clear
1:53 AM 68.0 °F - 60.1 °F 76% 29.81 in 9.0 mi Calm Calm - N/A   Unknown
2:53 AM 66.9 °F - 60.1 °F 79% 29.80 in 9.0 mi Calm Calm - N/A   Unknown
3:53 AM 66.0 °F - 59.0 °F 78% 29.81 in 8.0 mi Calm Calm - N/A   Unknown
4:53 AM 66.0 °F - 59.0 °F 78% 29.80 in 8.0 mi Calm Calm - N/A   Unknown
5:53 AM 64.9 °F - 59.0 °F 81% 29.81 in 8.0 mi Calm Calm - N/A   Unknown
6:53 AM 64.9 °F - 57.9 °F 78% 29.81 in 7.0 mi Calm Calm - N/A   Unknown
7:53 AM 66.9 °F - 60.1 °F 79% 29.82 in 6.0 mi Calm Calm - N/A   Haze
8:53 AM 71.1 °F - 60.1 °F 68% 29.83 in 5.0 mi Calm Calm - N/A   Haze
9:53 AM 73.9 °F - 60.1 °F 62% 29.83 in 6.0 mi Variable 3.5 mph - N/A   Haze
10:53 AM 79.0 °F - 60.1 °F 52% 29.82 in 7.0 mi Calm Calm - N/A   Clear
11:53 AM 81.0 °F 81.7 °F 61.0 °F 50% 29.81 in 8.0 mi SSW 5.8 mph - N/A   Unknown
12:53 PM 82.9 °F 83.2 °F 60.1 °F 46% 29.81 in 6.0 mi Variable 5.8 mph - N/A   Haze
1:53 PM 80.1 °F 80.9 °F 60.1 °F 50% 29.80 in 6.0 mi Variable 5.8 mph - N/A   Haze
2:53 PM 81.0 °F 81.6 °F 60.1 °F 49% 29.78 in 6.0 mi Variable 5.8 mph - N/A   Haze
3:53 PM 82.9 °F 83.2 °F 60.1 °F 46% 29.75 in 7.0 mi South 6.9 mph - N/A   Clear
4:53 PM 84.0 °F 83.8 °F 59.0 °F 43% 29.75 in 10.0 mi SW 5.8 mph - N/A   Unknown
5:53 PM 82.0 °F 82.0 °F 57.9 °F 44% 29.76 in 10.0 mi SW 6.9 mph - N/A   Unknown
6:53 PM 79.0 °F - 57.9 °F 48% 29.79 in 10.0 mi South 8.1 mph - N/A   Unknown
7:53 PM 73.9 °F - 57.9 °F 57% 29.82 in 10.0 mi SSE 5.8 mph - N/A   Unknown
8:53 PM 69.1 °F - 57.9 °F 68% 29.85 in 10.0 mi South 5.8 mph - N/A   Unknown
9:53 PM 68.0 °F - 59.0 °F 73% 29.86 in 8.0 mi South 3.5 mph - N/A   Unknown
10:53 PM 66.9 °F - 59.0 °F 76% 29.88 in 7.0 mi Calm Calm - N/A   Unknown
11:53 PM 66.0 °F - 59.0 °F 78% 29.86 in 7.0 mi South 4.6 mph - N/A   Unknown